Weather in Tulbagh

South Africa     33°17′14″S   19°08′19″E
temp.,
°C
wind,
m/s
gust,
m/s
humid.,
%
clouds,
%
prec.,
mm/h
press.,
hPa
HPBL,
m
16 january, sun
sun1623:00+20wsw21730 0.0 1012196
02:00+18w218517 0.0 1012183
05:00+17w229050 0.0 1012274
08:00+19w227934 0.0 1012441
11:00+23wsw33560 0.0 1013883
14:00+28wsw44390 0.0 10121441
17:00+27wsw55370 0.0 10121492
20:00+21wsw33535 0.0 1014284
17 january, mon
mon1723:00+18sw117020 0.0 101628
02:00+16s01813 0.0 101617
05:00+15ese21825 0.0 101512
08:00+20se22625 0.0 1016395
11:00+27sw23395 0.0 10141393
14:00+32wsw34283 0.0 10112267
17:00+32w43275 0.0 10091587
20:00+24wsw32441 0.0 101167
18 january, tue
tue1823:00+20wnw22631 0.0 101230
02:00+18wnw22745 0.0 101238
05:00+16wnw22835 0.0 101316
08:00+18wnw237594 0.0 1014414
11:00+20w466794 0.1 10161100
14:00+19w4880100 0.5 10161007
17:00+19w367896 0.6 1016884
20:00+16wsw228289 0.9 1018171
19 january, wed
wed1923:00+13ssw119157 0.0 101915
02:00+12ese229415 0.0 101921
05:00+12e22905 0.0 101914
08:00+19ese1158100 0.0 1018267
11:00+25wsw22335 0.0 10171127
14:00+29wsw33210 0.0 10141723
17:00+29wsw32150 0.0 10131402
20:00+22wsw22270 0.0 101412
20 january, thu
thu2023:00+19ese22471 0.0 101415
02:00+18ese22600 0.0 101412
05:00+17ese11580 0.0 101411
08:00+23wsw11350 0.0 1014203
11:00+28wsw32210 0.0 1014921
14:00+32wsw33120 0.0 10131554
17:00+31wsw42150 0.0 10121260
20:00+23wsw22320 0.0 101416